| time (UTC) | temp F | wind direction | speed knots | gust knots | rain 1hr in | rain 24hr in | rain mn in | humidity % | barometer mb |
| 20260502183120 | 49 | 288 | 8.7 | 13.9 | 0.00 | 0.00 | 0.00 | 53 | 1016.8 |
| 20260502182614 | 49 | 315 | 12.2 | 14.8 | 0.00 | 0.00 | 0.00 | 52 | 1016.9 |
| 20260502182110 | 49 | 335 | 7.8 | 12.2 | 0.00 | 0.00 | 0.00 | 53 | 1016.9 |
| 20260502181609 | 49 | 322 | 7.0 | 9.6 | 0.00 | 0.00 | 0.00 | 52 | 1016.9 |
| 20260502181107 | 47 | 332 | 2.6 | 7.8 | 0.00 | 0.00 | 0.00 | 52 | 1016.8 |
| 20260502180604 | 48 | 5 | 10.4 | 13.0 | 0.00 | 0.00 | 0.00 | 50 | 1016.6 |
| 20260502170518 | 49 | 313 | 5.2 | 11.3 | 0.00 | 0.00 | 0.00 | 49 | 1017.1 |
| 20260502164002 | 49 | 305 | 3.5 | 11.3 | 0.00 | 0.00 | 0.00 | 48 | 1017.4 |
| 20260502163457 | 49 | 341 | 6.1 | 13.0 | 0.00 | 0.00 | 0.00 | 52 | 1017.3 |
| 20260502162955 | 49 | 32 | 2.6 | 7.0 | 0.00 | 0.00 | 0.00 | 49 | 1017.1 |
| 20260502162452 | 49 | 13 | 7.0 | 12.2 | 0.00 | 0.00 | 0.00 | 47 | 1017.3 |
| 20260502161949 | 49 | 298 | 9.6 | 12.2 | 0.00 | 0.00 | 0.00 | 48 | 1017.3 |
| 20260502161445 | 49 | 306 | 7.0 | 11.3 | 0.00 | 0.00 | 0.00 | 50 | 1017.3 |
| 20260502160943 | 48 | 350 | 7.0 | 12.2 | 0.00 | 0.00 | 0.00 | 53 | 1017.5 |
| 20260502160441 | 49 | 330 | 9.6 | 12.2 | 0.00 | 0.00 | 0.00 | 53 | 1017.6 |
| 20260502151913 | 47 | 280 | 3.5 | 7.8 | 0.00 | 0.00 | 0.00 | 51 | 1017.6 |
| 20260502151409 | 48 | 0 | 7.8 | 9.6 | 0.00 | 0.00 | 0.00 | 52 | 1017.5 |
| 20260502150907 | 47 | 22 | 3.5 | 9.6 | 0.00 | 0.00 | 0.00 | 52 | 1017.5 |
| 20260502150403 | 47 | 336 | 6.1 | 9.6 | 0.00 | 0.00 | 0.00 | 53 | 1017.9 |
| 20260502130249 | 41 | 297 | 1.7 | 2.6 | 0.00 | 0.00 | 0.00 | 77 | 1017.7 |
| 20260502123735 | 40 | 331 | 1.7 | 3.5 | 0.00 | 0.00 | 0.00 | 81 | 1017.6 |
| 20260502123232 | 40 | 324 | 0.9 | 3.5 | 0.00 | 0.00 | 0.00 | 81 | 1017.9 |
| 20260502122728 | 40 | 296 | 3.5 | 3.5 | 0.00 | 0.00 | 0.00 | 82 | 1017.7 |
| 20260502122224 | 39 | 293 | 3.5 | 5.2 | 0.00 | 0.00 | 0.00 | 82 | 1017.6 |
| 20260502121723 | 39 | 322 | 1.7 | 2.6 | 0.00 | 0.00 | 0.00 | 83 | 1017.6 |
| 20260502121220 | 39 | 299 | 2.6 | 2.6 | 0.00 | 0.00 | 0.00 | 84 | 1017.6 |
| 20260502120716 | 39 | 296 | 3.5 | 5.2 | 0.00 | 0.00 | 0.00 | 85 | 1017.7 |
| 20260502120213 | 38 | 308 | 1.7 | 3.5 | 0.00 | 0.00 | 0.00 | 85 | 1017.5 |
| 20260502115711 | 38 | 352 | 0.9 | 3.5 | 0.00 | 0.00 | 0.00 | 85 | 1017.7 |
| 20260502115208 | 38 | 359 | 1.7 | 2.6 | 0.00 | 0.00 | 0.00 | 85 | 1017.7 |
| 20260502114703 | 39 | 15 | 1.7 | 5.2 | 0.00 | 0.00 | 0.00 | 84 | 1017.6 |
| 20260502114201 | 39 | 350 | 1.7 | 3.5 | 0.00 | 0.00 | 0.00 | 85 | 1017.4 |
| 20260502113658 | 39 | 325 | 0.9 | 1.7 | 0.00 | 0.00 | 0.00 | 85 | 1017.5 |
| 20260502113156 | 39 | 305 | 1.7 | 2.6 | 0.00 | 0.00 | 0.00 | 86 | 1017.5 |
| 20260502112654 | 38 | 305 | 0.9 | 1.7 | 0.00 | 0.00 | 0.00 | 87 | 1017.6 |
| 20260502112151 | 37 | 316 | 0.9 | 1.7 | 0.00 | 0.00 | 0.00 | 88 | 1017.3 |
| 20260502111648 | 36 | 319 | 0.9 | 1.7 | 0.00 | 0.00 | 0.00 | 88 | 1017.4 |
| 20260502111146 | 36 | 320 | 0.0 | 0.9 | 0.00 | 0.00 | 0.00 | 88 | 1017.5 |
| 20260502110643 | 36 | 320 | 0.9 | 1.7 | 0.00 | 0.00 | 0.00 | 88 | 1017.3 |
| 20260502110140 | 36 | 307 | 1.7 | 1.7 | 0.00 | 0.00 | 0.00 | 88 | 1017.4 |
| 20260502105638 | 36 | 332 | 0.9 | 1.7 | 0.00 | 0.00 | 0.00 | 88 | 1017.1 |
| 20260502105135 | 36 | 333 | 1.7 | 1.7 | 0.00 | 0.00 | 0.00 | 87 | 1017.3 |
| 20260502104632 | 36 | 323 | 0.9 | 1.7 | 0.00 | 0.00 | 0.00 | 87 | 1017.2 |
| 20260502104129 | 36 | 328 | 1.7 | 2.6 | 0.00 | 0.00 | 0.00 | 87 | 1017.2 |
| 20260502103627 | 36 | 324 | 0.9 | 1.7 | 0.00 | 0.00 | 0.00 | 87 | 1017.2 |
| 20260502103125 | 36 | 306 | 0.9 | 2.6 | 0.00 | 0.00 | 0.00 | 86 | 1017.4 |
| 20260502102621 | 37 | 313 | 1.7 | 3.5 | 0.00 | 0.00 | 0.00 | 86 | 1017.6 |
| 20260502102112 | 37 | 319 | 1.7 | 3.5 | 0.00 | 0.00 | 0.00 | 86 | 1017.6 |
| 20260502101610 | 37 | 317 | 1.7 | 1.7 | 0.00 | 0.00 | 0.00 | 85 | 1017.5 |
| 20260502101108 | 37 | 292 | 0.9 | 1.7 | 0.00 | 0.00 | 0.00 | 84 | 1017.4 |
| 20260502100607 | 37 | 297 | 1.7 | 2.6 | 0.00 | 0.00 | 0.00 | 85 | 1017.4 |
| 20260502100105 | 37 | 314 | 5.2 | 6.1 | 0.00 | 0.00 | 0.00 | 85 | 1017.5 |
| 20260502091038 | 38 | 321 | 1.7 | 2.6 | 0.00 | 0.00 | 0.00 | 80 | 1017.6 |
| 20260502090535 | 38 | 314 | 1.7 | 2.6 | 0.00 | 0.00 | 0.00 | 80 | 1017.7 |
| 20260502071430 | 42 | 322 | 3.5 | 6.1 | 0.00 | 0.00 | 0.00 | 69 | 1017.2 |
| 20260502070928 | 42 | 322 | 2.6 | 6.1 | 0.00 | 0.00 | 0.00 | 69 | 1017.2 |
| 20260502070426 | 42 | 315 | 3.5 | 5.2 | 0.00 | 0.00 | 0.00 | 69 | 1017.3 |
| 20260502065924 | 42 | 321 | 1.7 | 5.2 | 0.00 | 0.00 | 0.00 | 70 | 1017.3 |
| 20260502065422 | 42 | 315 | 4.3 | 6.1 | 0.00 | 0.00 | 0.00 | 69 | 1017.6 |
| 20260502064920 | 42 | 319 | 2.6 | 5.2 | 0.00 | 0.00 | 0.00 | 70 | 1017.4 |
| 20260502064417 | 42 | 312 | 5.2 | 6.1 | 0.00 | 0.00 | 0.00 | 68 | 1017.5 |
| 20260502063914 | 42 | 321 | 1.7 | 2.6 | 0.00 | 0.00 | 0.00 | 70 | 1017.4 |
| 20260502063412 | 42 | 301 | 3.5 | 5.2 | 0.00 | 0.00 | 0.00 | 69 | 1017.5 |
| 20260502062910 | 42 | 316 | 2.6 | 3.5 | 0.00 | 0.00 | 0.00 | 70 | 1017.6 |
| 20260502062407 | 42 | 328 | 2.6 | 3.5 | 0.00 | 0.00 | 0.00 | 69 | 1017.7 |
| 20260502061906 | 43 | 320 | 3.5 | 7.8 | 0.00 | 0.00 | 0.00 | 68 | 1017.9 |
| 20260502061403 | 43 | 324 | 1.7 | 5.2 | 0.00 | 0.00 | 0.00 | 68 | 1018.0 |
| 20260502060859 | 43 | 309 | 3.5 | 6.1 | 0.00 | 0.00 | 0.00 | 68 | 1017.7 |
| 20260502060358 | 43 | 349 | 1.7 | 2.6 | 0.00 | 0.00 | 0.00 | 69 | 1018.0 |
| 20260502055856 | 43 | 19 | 3.5 | 6.1 | 0.00 | 0.00 | 0.00 | 67 | 1017.9 |
| 20260502055354 | 43 | 296 | 2.6 | 5.2 | 0.00 | 0.00 | 0.00 | 71 | 1018.0 |
| 20260502054854 | 43 | 318 | 6.1 | 7.0 | 0.00 | 0.00 | 0.00 | 74 | 1018.0 |
| 20260502054351 | 44 | 328 | 3.5 | 5.2 | 0.00 | 0.00 | 0.00 | 75 | 1018.0 |
| 20260502053848 | 44 | 11 | 1.7 | 6.1 | 0.00 | 0.00 | 0.00 | 75 | 1017.9 |
| 20260502053345 | 44 | 305 | 5.2 | 8.7 | 0.00 | 0.00 | 0.00 | 75 | 1018.0 |
| 20260502052843 | 44 | 12 | 6.1 | 7.8 | 0.00 | 0.00 | 0.00 | 75 | 1017.9 |
| 20260502052341 | 44 | 336 | 6.1 | 9.6 | 0.00 | 0.00 | 0.00 | 78 | 1017.9 |
| 20260502051838 | 44 | 336 | 3.5 | 7.0 | 0.00 | 0.00 | 0.00 | 79 | 1018.0 |
| 20260502051337 | 44 | 344 | 7.8 | 7.8 | 0.00 | 0.00 | 0.00 | 79 | 1017.9 |
| 20260502050833 | 44 | 334 | 3.5 | 8.7 | 0.00 | 0.00 | 0.00 | 80 | 1017.5 |
| 20260502050329 | 45 | 310 | 6.1 | 8.7 | 0.00 | 0.00 | 0.00 | 81 | 1017.6 |
| 20260502045826 | 45 | 308 | 4.3 | 7.8 | 0.00 | 0.00 | 0.00 | 81 | 1017.6 |
| 20260502045323 | 45 | 310 | 2.6 | 5.2 | 0.00 | 0.00 | 0.00 | 81 | 1017.7 |
| 20260502044821 | 45 | 308 | 3.5 | 5.2 | 0.00 | 0.00 | 0.00 | 81 | 1017.9 |
| 20260502044316 | 45 | 309 | 7.0 | 7.8 | 0.00 | 0.00 | 0.00 | 80 | 1017.7 |
| 20260502043814 | 45 | 348 | 4.3 | 7.0 | 0.00 | 0.00 | 0.00 | 80 | 1018.0 |
| 20260502043311 | 45 | 341 | 5.2 | 7.0 | 0.00 | 0.00 | 0.00 | 80 | 1018.0 |
| 20260502042811 | 45 | 323 | 5.2 | 7.8 | 0.00 | 0.00 | 0.00 | 79 | 1018.1 |
| 20260502042308 | 45 | 314 | 4.3 | 9.6 | 0.00 | 0.00 | 0.00 | 79 | 1018.0 |
| 20260502041806 | 45 | 339 | 6.1 | 7.0 | 0.00 | 0.00 | 0.00 | 78 | 1018.0 |
| 20260502041303 | 45 | 333 | 3.5 | 3.5 | 0.00 | 0.00 | 0.00 | 79 | 1017.7 |
| 20260502040800 | 45 | 321 | 5.2 | 6.1 | 0.00 | 0.00 | 0.00 | 78 | 1017.7 |
| 20260502040256 | 45 | 346 | 2.6 | 6.1 | 0.00 | 0.00 | 0.00 | 78 | 1017.7 |
| 20260502035752 | 45 | 310 | 2.6 | 3.5 | 0.00 | 0.00 | 0.00 | 78 | 1018.0 |
| 20260502035249 | 46 | 313 | 3.5 | 7.0 | 0.00 | 0.00 | 0.00 | 78 | 1017.7 |
| 20260502034747 | 46 | 327 | 3.5 | 8.7 | 0.00 | 0.00 | 0.00 | 78 | 1017.7 |
| 20260502034245 | 46 | 7 | 1.7 | 2.6 | 0.00 | 0.00 | 0.00 | 77 | 1017.9 |
| 20260502033743 | 46 | 347 | 3.5 | 7.0 | 0.00 | 0.00 | 0.00 | 77 | 1018.1 |
| 20260502033240 | 46 | 327 | 1.7 | 5.2 | 0.00 | 0.00 | 0.00 | 77 | 1018.0 |
| 20260502032737 | 46 | 321 | 1.7 | 6.1 | 0.00 | 0.00 | 0.00 | 76 | 1018.0 |
| 20260502032233 | 46 | 1 | 4.3 | 6.1 | 0.00 | 0.00 | 0.00 | 76 | 1018.1 |
| 20260502031732 | 46 | 326 | 5.2 | 7.8 | 0.00 | 0.00 | 0.00 | 75 | 1018.0 |
| 20260502031229 | 46 | 341 | 9.6 | 13.0 | 0.00 | 0.00 | 0.00 | 74 | 1018.1 |
| 20260502030727 | 46 | 342 | 5.2 | 9.6 | 0.00 | 0.00 | 0.00 | 75 | 1017.9 |
| 20260502030225 | 46 | 328 | 5.2 | 7.0 | 0.00 | 0.00 | 0.00 | 76 | 1018.1 |
| 20260502025721 | 47 | 330 | 4.3 | 7.8 | 0.00 | 0.00 | 0.00 | 75 | 1018.1 |
| 20260502025220 | 47 | 313 | 2.6 | 5.2 | 0.00 | 0.00 | 0.00 | 76 | 1018.0 |
| 20260502024717 | 47 | 344 | 6.1 | 8.7 | 0.00 | 0.00 | 0.00 | 76 | 1018.0 |
| 20260502024215 | 47 | 333 | 2.6 | 6.1 | 0.00 | 0.00 | 0.00 | 75 | 1017.7 |
| 20260502023713 | 47 | 322 | 3.5 | 5.2 | 0.00 | 0.00 | 0.00 | 75 | 1017.7 |
| 20260502023210 | 47 | 315 | 3.5 | 6.1 | 0.00 | 0.00 | 0.00 | 75 | 1017.7 |
| 20260502022707 | 47 | 318 | 4.3 | 9.6 | 0.00 | 0.00 | 0.00 | 75 | 1017.6 |
| 20260502022204 | 47 | 342 | 8.7 | 9.6 | 0.00 | 0.00 | 0.00 | 74 | 1017.4 |
| 20260502021701 | 47 | 8 | 4.3 | 7.8 | 0.00 | 0.00 | 0.00 | 73 | 1017.3 |
| 20260502021158 | 47 | 3 | 6.1 | 8.7 | 0.00 | 0.00 | 0.00 | 73 | 1017.1 |
| 20260502020655 | 48 | 339 | 8.7 | 9.6 | 0.00 | 0.00 | 0.00 | 74 | 1017.6 |
| 20260502020152 | 48 | 322 | 4.3 | 8.7 | 0.00 | 0.00 | 0.00 | 75 | 1017.3 |
| 20260502015650 | 48 | 335 | 7.8 | 8.7 | 0.00 | 0.00 | 0.00 | 74 | 1017.1 |
| 20260502015146 | 48 | 326 | 6.1 | 11.3 | 0.00 | 0.00 | 0.00 | 75 | 1017.0 |
| 20260502014644 | 48 | 323 | 5.2 | 8.7 | 0.00 | 0.00 | 0.00 | 75 | 1016.7 |
| 20260502014140 | 48 | 330 | 6.1 | 7.8 | 0.00 | 0.00 | 0.00 | 76 | 1016.7 |
| 20260502013636 | 48 | 357 | 4.3 | 5.2 | 0.00 | 0.00 | 0.00 | 76 | 1016.6 |
| 20260502013132 | 49 | 326 | 6.1 | 8.7 | 0.00 | 0.00 | 0.00 | 75 | 1016.6 |
| 20260502012630 | 48 | 346 | 6.1 | 7.8 | 0.00 | 0.00 | 0.00 | 76 | 1016.6 |
| 20260502012128 | 48 | 330 | 5.2 | 7.8 | 0.00 | 0.00 | 0.00 | 76 | 1016.3 |
| 20260502011624 | 49 | 328 | 7.8 | 13.9 | 0.00 | 0.00 | 0.00 | 77 | 1016.5 |
| 20260502011120 | 49 | 294 | 6.1 | 8.7 | 0.00 | 0.00 | 0.00 | 78 | 1016.5 |
| 20260502010618 | 49 | 324 | 6.1 | 8.7 | 0.00 | 0.00 | 0.00 | 78 | 1016.2 |
| 20260502010114 | 49 | 6 | 4.3 | 7.0 | 0.00 | 0.00 | 0.00 | 78 | 1016.0 |
| 20260502005612 | 49 | 324 | 4.3 | 11.3 | 0.00 | 0.00 | 0.00 | 78 | 1015.9 |
| 20260502005109 | 49 | 348 | 5.2 | 7.0 | 0.00 | 0.00 | 0.00 | 77 | 1015.9 |
| 20260502004604 | 49 | 311 | 7.0 | 8.7 | 0.00 | 0.00 | 0.00 | 77 | 1015.8 |
| 20260502004102 | 49 | 318 | 4.3 | 6.1 | 0.00 | 0.00 | 0.00 | 76 | 1015.7 |
| 20260502003600 | 49 | 333 | 5.2 | 8.7 | 0.00 | 0.00 | 0.00 | 76 | 1015.6 |
| 20260502003057 | 49 | 337 | 7.8 | 15.6 | 0.00 | 0.00 | 0.00 | 74 | 1015.6 |
| 20260502002553 | 49 | 320 | 5.2 | 7.0 | 0.00 | 0.00 | 0.00 | 74 | 1015.7 |
| 20260502002050 | 50 | 333 | 5.2 | 7.8 | 0.00 | 0.00 | 0.00 | 73 | 1015.5 |
| 20260502001548 | 50 | 333 | 3.5 | 7.8 | 0.00 | 0.00 | 0.00 | 72 | 1015.4 |
| 20260502001044 | 51 | 328 | 6.1 | 9.6 | 0.00 | 0.00 | 0.00 | 70 | 1015.2 |
| 20260502000543 | 51 | 310 | 7.8 | 11.3 | 0.00 | 0.00 | 0.00 | 69 | 1015.2 |
| 20260502000040 | 51 | 326 | 5.2 | 7.8 | 0.00 | 0.00 | 0.00 | 68 | 1015.1 |
| 20260501235535 | 52 | 306 | 6.1 | 18.2 | 0.00 | 0.00 | 0.00 | 68 | 1014.6 |
| 20260501235031 | 54 | 307 | 7.8 | 12.2 | 0.00 | 0.00 | 0.00 | 61 | 1014.4 |
| 20260501234527 | 55 | 339 | 3.5 | 9.6 | 0.00 | 0.00 | 0.00 | 57 | 1014.3 |
| 20260501234026 | 57 | 312 | 10.4 | 16.5 | 0.00 | 0.00 | 0.00 | 50 | 1013.9 |
| 20260501233523 | 58 | 316 | 3.5 | 7.0 | 0.00 | 0.00 | 0.00 | 47 | 1013.8 |
| 20260501233021 | 58 | 352 | 5.2 | 6.1 | 0.00 | 0.00 | 0.00 | 46 | 1013.8 |
| 20260501232516 | 59 | 301 | 6.1 | 14.8 | 0.00 | 0.00 | 0.00 | 44 | 1013.7 |
| 20260501232013 | 60 | 310 | 8.7 | 13.0 | 0.00 | 0.00 | 0.00 | 41 | 1013.5 |
| 20260501231511 | 60 | 316 | 5.2 | 9.6 | 0.00 | 0.00 | 0.00 | 41 | 1013.7 |
| 20260501231009 | 60 | 311 | 7.8 | 11.3 | 0.00 | 0.00 | 0.00 | 41 | 1013.7 |
| 20260501230508 | 59 | 316 | 6.1 | 12.2 | 0.00 | 0.00 | 0.00 | 41 | 1013.7 |
| 20260501230005 | 60 | 314 | 5.2 | 9.6 | 0.00 | 0.00 | 0.00 | 42 | 1013.4 |
| 20260501225503 | 61 | 279 | 9.6 | 11.3 | 0.00 | 0.00 | 0.00 | 42 | 1013.4 |
| 20260501224958 | 61 | 310 | 10.4 | 11.3 | 0.00 | 0.00 | 0.00 | 37 | 1013.5 |
| 20260501224456 | 61 | 305 | 8.7 | 12.2 | 0.00 | 0.00 | 0.00 | 37 | 1013.7 |
| 20260501223953 | 60 | 312 | 7.8 | 9.6 | 0.00 | 0.00 | 0.00 | 39 | 1013.4 |
| 20260501223449 | 61 | 257 | 5.2 | 21.7 | 0.00 | 0.00 | 0.00 | 38 | 1013.4 |
| 20260501222944 | 62 | 294 | 9.6 | 12.2 | 0.00 | 0.00 | 0.00 | 35 | 1013.3 |
| 20260501222442 | 62 | 306 | 10.4 | 11.3 | 0.00 | 0.00 | 0.00 | 35 | 1013.7 |
| 20260501221938 | 62 | 319 | 8.7 | 12.2 | 0.00 | 0.00 | 0.00 | 34 | 1013.5 |
| 20260501221436 | 62 | 316 | 10.4 | 13.0 | 0.00 | 0.00 | 0.00 | 36 | 1013.4 |
| 20260501220933 | 62 | 284 | 8.7 | 9.6 | 0.00 | 0.00 | 0.00 | 33 | 1013.7 |
| 20260501220431 | 62 | 252 | 3.5 | 7.8 | 0.00 | 0.00 | 0.00 | 36 | 1013.7 |
| 20260501215926 | 63 | 286 | 7.0 | 12.2 | 0.00 | 0.00 | 0.00 | 35 | 1013.7 |
| 20260501215424 | 62 | 277 | 5.2 | 13.0 | 0.00 | 0.00 | 0.00 | 35 | 1013.5 |
| 20260501214919 | 61 | 318 | 8.7 | 15.6 | 0.00 | 0.00 | 0.00 | 36 | 1013.5 |
| 20260501214415 | 61 | 312 | 5.2 | 8.7 | 0.00 | 0.00 | 0.00 | 36 | 1013.7 |
| 20260501213910 | 62 | 275 | 11.3 | 19.1 | 0.00 | 0.00 | 0.00 | 34 | 1013.4 |
| 20260501213408 | 63 | 310 | 7.8 | 12.2 | 0.00 | 0.00 | 0.00 | 39 | 1013.5 |
| 20260501212903 | 63 | 304 | 2.6 | 7.8 | 0.00 | 0.00 | 0.00 | 34 | 1013.4 |
| 20260501212400 | 63 | 282 | 11.3 | 13.9 | 0.00 | 0.00 | 0.00 | 33 | 1013.5 |
| 20260501211857 | 63 | 332 | 10.4 | 14.8 | 0.00 | 0.00 | 0.00 | 37 | 1013.5 |
| 20260501211354 | 63 | 298 | 11.3 | 13.9 | 0.00 | 0.00 | 0.00 | 33 | 1013.8 |
| 20260501210851 | 62 | 303 | 12.2 | 18.2 | 0.00 | 0.00 | 0.00 | 34 | 1013.4 |
| 20260501210348 | 64 | 298 | 5.2 | 12.2 | 0.00 | 0.00 | 0.00 | 32 | 1013.2 |
| 20260501205844 | 63 | 272 | 5.2 | 8.7 | 0.00 | 0.00 | 0.00 | 33 | 1013.5 |
| 20260501205341 | 62 | 305 | 9.6 | 12.2 | 0.00 | 0.00 | 0.00 | 32 | 1013.5 |
| 20260501204838 | 63 | 281 | 6.1 | 11.3 | 0.00 | 0.00 | 0.00 | 34 | 1013.3 |
| 20260501204335 | 64 | 315 | 12.2 | 18.2 | 0.00 | 0.00 | 0.00 | 31 | 1013.5 |
| 20260501203831 | 64 | 281 | 11.3 | 14.8 | 0.00 | 0.00 | 0.00 | 30 | 1013.3 |
| 20260501203329 | 64 | 282 | 6.1 | 12.2 | 0.00 | 0.00 | 0.00 | 32 | 1013.5 |
| 20260501202826 | 64 | 288 | 7.8 | 14.8 | 0.00 | 0.00 | 0.00 | 29 | 1013.2 |
| 20260501202323 | 64 | 267 | 9.6 | 13.9 | 0.00 | 0.00 | 0.00 | 30 | 1013.3 |
| 20260501201820 | 65 | 303 | 13.0 | 13.9 | 0.00 | 0.00 | 0.00 | 33 | 1013.7 |
| 20260501201316 | 65 | 255 | 4.3 | 9.6 | 0.00 | 0.00 | 0.00 | 32 | 1013.7 |
| 20260501200812 | 64 | 248 | 4.3 | 7.8 | 0.00 | 0.00 | 0.00 | 31 | 1013.4 |
| 20260501200309 | 64 | 293 | 6.1 | 11.3 | 0.00 | 0.00 | 0.00 | 30 | 1013.7 |
| 20260501195807 | 65 | 309 | 16.5 | 19.1 | 0.00 | 0.00 | 0.00 | 30 | 1013.5 |
| 20260501195305 | 64 | 326 | 6.1 | 9.6 | 0.00 | 0.00 | 0.00 | 31 | 1013.5 |
| 20260501194759 | 64 | 293 | 5.2 | 14.8 | 0.00 | 0.00 | 0.00 | 31 | 1013.5 |
| 20260501194255 | 65 | 294 | 7.8 | 7.8 | 0.00 | 0.00 | 0.00 | 29 | 1013.5 |
| 20260501193751 | 65 | 281 | 7.0 | 12.2 | 0.00 | 0.00 | 0.00 | 28 | 1013.7 |
| 20260501193250 | 65 | 281 | 6.1 | 11.3 | 0.00 | 0.00 | 0.00 | 29 | 1013.7 |
| 20260501192747 | 64 | 266 | 0.9 | 7.8 | 0.00 | 0.00 | 0.00 | 33 | 1014.0 |
| 20260501192244 | 65 | 283 | 3.5 | 9.6 | 0.00 | 0.00 | 0.00 | 33 | 1014.0 |
| 20260501191741 | 65 | 279 | 6.1 | 7.8 | 0.00 | 0.00 | 0.00 | 30 | 1014.2 |
| 20260501191238 | 65 | 312 | 0.9 | 3.5 | 0.00 | 0.00 | 0.00 | 28 | 1014.0 |
| 20260501190735 | 64 | 222 | 3.5 | 9.6 | 0.00 | 0.00 | 0.00 | 30 | 1014.2 |
| 20260501190230 | 65 | 240 | 4.3 | 11.3 | 0.00 | 0.00 | 0.00 | 30 | 1014.1 |
| 20260501185726 | 64 | 319 | 0.9 | 2.6 | 0.00 | 0.00 | 0.00 | 34 | 1014.1 |
| 20260501185223 | 64 | 186 | 5.2 | 8.7 | 0.00 | 0.00 | 0.00 | 26 | 1014.3 |
| 20260501184719 | 64 | 239 | 0.9 | 11.3 | 0.00 | 0.00 | 0.00 | 30 | 1014.2 |
| 20260501184215 | 65 | 297 | 7.8 | 13.0 | 0.00 | 0.00 | 0.00 | 25 | 1014.3 |
| 20260501183711 | 65 | 268 | 0.0 | 6.1 | 0.00 | 0.00 | 0.00 | 29 | 1014.2 |